Regional Weather Roundup
Issued by NWS

Home | Current Version | Previous Version | Text Only | Print | Product List | Glossary Off
Versions: 1 2 3 4 5 6 7 8 9 10 11 12 13 14 15 16 17 18 19 20 21 22 23 24 25 26 27 28 29 30 31 32 33 34 35 36 37 38 39 40 41 42 43 44 45 46 47 48 49 50

000
ASUS43 KLOT 310600
RWRIL

ILLINOIS REGIONAL WEATHER ROUNDUP
NATIONAL WEATHER SERVICE CHICAGO/ROMEOVILLE IL
100 AM CDT FRI OCT 31 2014

NOTE: "FAIR" INDICATES FEW OR NO CLOUDS BELOW 12,000 FEET WITH NO
SIGNIFICANT WEATHER AND/OR OBSTRUCTIONS TO VISIBILITY.

* THESE STATIONS ARE NOT UNDER NWS QUALITY CONTROL. THEY ALSO MAY NOT
  REPORT WEATHER SUCH AS PRECIPITATION OR FOG.

ILZ001-002-007-009-015-016-024-310700-
NORTHWEST ILLINOIS

CITY           SKY/WX    TMP DP  RH WIND       PRES   REMARKS
MOLINE         CLOUDY    49  37  63 NW13      30.11R
6HR MIN TEMP:  45; 6HR MAX TEMP:  49;

STERLING*      CLOUDY    46  37  71 NW12      30.08S
$$

ILZ003-004-008-010-011-017-018-310700-
NORTH CENTRAL ILLINOIS

CITY           SKY/WX    TMP DP  RH WIND       PRES   REMARKS
ROCKFORD       CLOUDY    47  37  68 NW12      30.07F
6HR MIN TEMP:  46; 6HR MAX TEMP:  48; 6HR PCP: TRACE;

FREEPORT*      CLOUDY    45  37  73 NW12G18   30.09S
$$

ILZ005-006-012>014-019>023-310700-
NORTHEAST ILLINOIS

CITY           SKY/WX    TMP DP  RH WIND       PRES   REMARKS
CHICAGO-OHARE  CLOUDY    47  36  65 W9        30.02F
6HR MIN TEMP:  45; 6HR MAX TEMP:  48;

CHICAGO-MIDWAY LGT RAIN  48  37  65 W8        30.03F
6HR MIN TEMP:  48; 6HR MAX TEMP:  50; 6HR PCP: TRACE;

AURORA         CLOUDY    45  37  73 W7        30.05F
6HR MIN TEMP:  41; 6HR MAX TEMP:  48;

LANSING*       CLOUDY    45  37  76 W5        30.03F
WAUKEGAN       CLOUDY    45  37  73 W7        30.01F
6HR MIN TEMP:  42; 6HR MAX TEMP:  48; 6HR PCP: TRACE;

DUPAGE AIRPORT CLOUDY    46  37  71 W9        30.03F
6HR MIN TEMP:  44; 6HR MAX TEMP:  48; 6HR PCP: TRACE;

WHEELING       CLOUDY    48  36  63 NW8       30.04F
6HR MIN TEMP:  48; 6HR MAX TEMP:  50;

NORTHERLY ISL    N/A     48  36  63 NW5         N/A
$$

LMZ740>746-310700-
SOUTHERN LAKE MICHIGAN

STATION/POSITION SKY/WX   TEMP    WIND        PRES    VSBY  WAVE
                          AIR SEA DIR/SP/G                  HT/PER
                          (F)     (DEG/KT/KT) (MB)    (MI)  (FT/S)
SOUTHERN BUOY              50 53  280/ 16/ 19 1016.0F         2/ 3
WAUKEGAN HARBOR            47     300/ 12/ 15   N/A
HARRISON CRIB              49     270/ 11/ 14   N/A
BURNHAM HARBOR             48     290/  3/  9   N/A
CALUMET HARBOR             47     250/  5/  7 1015.7F
MICHIGAN CITY              50     250/ 14/ 18   N/A
$$

ILZ025>027-034>036-040-047-049-050-058-095>099-310700-
WEST-CENTRAL ILLINOIS

CITY           SKY/WX    TMP DP  RH WIND       PRES   REMARKS
QUINCY         CLOUDY    46  41  82 N7        30.10S
$$

ILZ028>032-037-038-041>044-048-051>054-059>061-310700-
CENTRAL ILLINOIS

CITY           SKY/WX    TMP DP  RH WIND       PRES   REMARKS
DECATUR        CLOUDY    46  44  93 CALM      30.06F
PEORIA         CLOUDY    46  41  82 NW3       30.09S
6HR MIN TEMP:  45; 6HR MAX TEMP:  47;

LINCOLN*       MOCLDY    44  42  93 CALM      30.07R
SPRINGFIELD    MOCLDY    46  43  89 CALM      30.08S
6HR MIN TEMP:  45; 6HR MAX TEMP:  51;

TAYLORVILLE    NOT AVBL
$$

ILZ033-039-045-046-055>057-062-063-310700-
EAST-CENTRAL ILLINOIS

CITY           SKY/WX    TMP DP  RH WIND       PRES   REMARKS
CHAMPAIGN      CLOUDY    44  42  93 N7        30.05F
MATTOON        CLOUDY    46  44  93 NE3       30.05S
$$

ILZ079-100>102-310700-
SOUTHWEST ILLINOIS

CITY           SKY/WX    TMP DP  RH WIND       PRES   REMARKS
ALTON          CLOUDY    49  45  88 CALM      30.06R
BELLEVILLE     CLOUDY    49  48  98 NW5       30.04R
CAHOKIA*       MOCLDY    48  45  89 NW3       30.05R
SPARTA*        CLOUDY    48  47  99 CALM      30.04S
$$

ILZ064>066-069>071-074>076-080>082-084>086-088>090-092>094-310700-
SOUTH-CENTRAL ILLINOIS

CITY           SKY/WX    TMP DP  RH WIND       PRES   REMARKS
CARBONDALE     CLOUDY    51  48  89 CALM      30.03S
6HR MIN TEMP:  51; 6HR MAX TEMP:  56; 6HR PCP:  0.01;

MARION         CLOUDY    52  50  93 CALM      30.03S
MT. VERNON     CLOUDY    48  45  87 N6        30.04S
$$

ILZ067-068-072-073-078-083-087-091-310700-
SOUTHEAST ILLINOIS

CITY           SKY/WX    TMP DP  RH WIND       PRES   REMARKS
LAWRENCEVILLE  LGT RAIN  47  45  93 NE3       30.05F
ROBINSON*      CLOUDY    48  46  93 CALM      30.06F
CARMI*         CLOUDY    51  48  90 N5        30.03S
$$

ABBREVIATIONS USED IN REMARKS
   TC - TEMPERATURE IN CELSIUS
  WCI - WIND CHILL INDEX
   HX - HEAT INDEX
  VSB - VISIBILITY
$$




USA.gov is the U.S. government's official web portal to all federal, state and local government web resources and services.